Tracking 28126 objects as of 1-Oct-2023
HD Live streaming from Space Station
objects crossing your sky now

COSMOS 839 DEB

Track COSMOS 839 DEB now!
10-day predictions


NORAD ID: 18428
Int'l Code: 1976-067BM
Perigee: 912.3 km
Apogee: 2,156.9 km
Inclination: 65.7 °
Period: 116.6 minutes
Semi major axis: 7905 km
RCS: 0.0096 m2 (small)
Launch date: July 8, 1976
Source: Commonwealth of Independent States (former USSR) (CIS)
Launch site: PLESETSK MISSILE AND SPACE COMPLEX (PKMTR)

Note: This is SATELLITE DEBRIS
Your satellite tracking list
Your tracking list is empty




NASA's NSSDC Master Catalog

Two Line Element Set (TLE):
1 18428U 76067BM  23272.13872372  .00001614  00000-0  46110-2 0  9994
2 18428  65.7338 330.1779 0787202 294.8254  81.9361 12.35094749480203
Source of the keplerian elements: AFSPC